Total_Precipitation_Accumulation
2.50 2.52 2.52 2.47 2.33 2.39 2.65 2.84 2.82 3.17 3.35 2.98 2.60 2.41 2.42 2.51 2.40 2.37 2.24 2.09 2.04 2.26 2.72 2.98 2.88 2.67 2.41 2.14 2.00 1.94 1.79 1.62 1.52 1.39 1.34 1.44 1.47 1.43 1.38 1.34 1.30 1.24 1.20
2.69 2.85 2.78 2.69 2.50 2.47 2.64 2.83 3.00 3.48 3.46 3.30 2.89 2.63 2.53 2.49 2.31 2.24 2.33 2.47 2.30 2.22 2.38 2.76 3.11 3.08 2.93 2.65 2.34 2.20 2.04 1.95 1.76 1.45 1.30 1.38 1.49 1.49 1.49 1.50 1.43 1.31 1.24
2.73 2.74 2.61 2.51 2.54 2.65 2.84 2.88 3.10 3.33 3.05 3.07 2.90 2.69 2.49 2.28 2.12 2.10 2.26 2.43 2.30 2.24 2.40 2.65 2.96 3.08 3.24 3.29 3.15 2.94 2.50 2.16 1.96 1.72 1.48 1.42 1.45 1.43 1.42 1.48 1.49 1.35 1.21
2.57 2.81 2.59 2.44 2.75 2.75 2.91 3.22 3.38 3.32 3.28 3.31 3.07 2.68 2.44 2.34 2.00 1.89 1.86 2.03 2.27 2.06 2.38 2.64 2.73 2.87 3.25 3.65 3.90 3.87 3.46 2.93 2.49 2.17 1.89 1.71 1.66 1.53 1.34 1.27 1.34 1.31 1.15
2.59 2.91 2.91 2.98 3.00 3.10 3.15 3.00 3.44 3.51 3.40 3.43 3.00 2.77 2.44 2.17 1.97 1.78 1.70 1.69 1.92 2.14 2.27 2.34 2.45 2.61 3.12 3.91 4.26 4.33 4.26 3.82 3.15 2.73 2.53 2.37 2.21 1.91 1.59 1.40 1.35 1.29 1.19
2.71 3.13 3.00 2.97 3.03 3.20 3.27 3.24 3.43 3.47 3.21 3.18 2.87 2.78 2.39 1.92 1.82 1.77 1.60 1.60 1.71 1.74 2.06 2.38 2.61 2.36 2.70 3.33 3.78 4.33 4.68 4.43 3.75 3.30 3.13 2.98 2.88 2.54 2.00 1.70 1.60 1.49 1.36
2.73 3.18 3.00 3.24 3.18 3.18 3.19 3.24 3.39 3.31 3.03 3.22 3.31 2.89 2.31 1.88 1.86 1.64 1.59 1.63 1.69 1.68 2.03 2.44 2.70 2.64 2.37 2.45 2.83 3.36 4.09 4.41 4.16 3.76 3.56 3.36 3.35 3.10 2.48 2.11 1.95 1.75 1.62
2.94 2.98 3.16 3.12 3.17 3.29 3.23 3.22 3.37 3.17 2.82 3.08 3.44 3.51 2.83 2.41 1.96 1.48 1.59 1.70 1.84 1.94 2.04 2.17 2.38 2.63 2.62 2.74 2.48 2.42 3.08 3.92 4.40 4.33 3.97 3.50 3.30 3.16 2.84 2.61 2.33 2.10 1.96
3.17 3.17 3.13 3.03 3.04 2.85 2.93 3.01 3.03 3.05 2.97 2.91 3.24 3.58 3.16 2.66 2.31 1.74 1.61 1.63 1.87 2.16 2.20 2.22 2.26 2.50 2.64 3.04 3.11 2.77 2.60 3.03 3.83 4.61 4.58 3.95 3.32 3.00 2.91 2.86 2.76 2.48 2.27
2.98 2.80 2.73 2.88 2.91 2.69 2.72 2.40 2.55 2.74 2.76 2.61 2.88 2.97 3.01 2.99 2.90 2.23 1.79 1.62 1.77 1.98 2.17 2.11 2.14 2.40 2.68 2.98 3.24 3.10 2.63 2.44 2.81 3.78 4.39 4.29 3.78 3.27 3.00 3.01 3.25 3.17 2.78
2.70 2.37 2.38 2.57 2.54 2.45 2.37 2.26 2.42 2.32 2.29 2.36 2.58 2.77 2.85 2.93 2.82 2.65 2.23 2.16 2.09 1.95 1.93 2.00 2.22 2.37 2.60 2.94 3.28 3.05 2.87 2.62 2.45 2.62 3.16 3.61 3.77 3.61 3.44 3.67 4.12 4.30 4.02
2.37 2.09 1.99 2.16 2.27 2.29 2.26 2.25 2.32 2.23 2.28 2.42 2.42 2.47 2.70 2.73 2.69 2.85 2.46 2.31 2.28 2.02 1.98 2.11 2.15 2.36 2.48 2.72 2.81 2.92 2.82 2.59 2.41 2.37 2.53 2.83 3.09 3.24 3.37 3.73 4.28 4.67 4.84
2.00 1.95 1.97 2.07 2.10 2.16 2.03 2.11 2.18 2.25 2.42 2.49 2.40 2.32 2.45 2.51 2.63 2.87 2.82 2.55 2.41 2.21 2.28 2.24 2.12 2.20 2.15 2.31 2.43 2.50 2.31 2.18 2.06 2.00 2.06 2.20 2.25 2.42 2.71 3.19 3.75 4.28 4.62
1.98 2.05 2.03 1.91 1.86 1.96 1.86 2.12 2.08 2.16 2.40 2.46 2.22 2.44 2.48 2.50 2.79 3.01 3.10 3.19 2.88 2.59 2.52 2.48 2.35 2.18 2.16 2.18 2.24 2.20 2.00 1.93 1.67 1.64 1.71 1.81 1.88 1.95 2.17 2.47 2.97 3.34 3.48
2.04 2.18 2.14 2.01 1.89 1.97 2.11 2.39 2.35 2.32 2.53 2.51 2.47 2.65 2.62 2.59 2.77 2.90 3.08 3.29 3.37 3.04 2.83 2.80 2.62 2.32 2.20 2.19 2.22 2.00 2.02 1.95 1.71 1.60 1.50 1.45 1.52 1.64 1.71 1.85 2.10 2.27 2.44
1.89 2.09 2.23 2.14 2.05 2.08 2.26 2.46 2.47 2.62 2.75 2.74 2.80 2.88 2.83 2.70 2.81 2.88 2.92 3.17 3.46 3.39 3.04 2.70 2.47 2.19 2.06 1.91 2.14 1.93 1.97 1.96 1.76 1.60 1.41 1.32 1.35 1.41 1.43 1.47 1.57 1.69 1.88
1.87 1.96 2.15 2.22 2.17 2.21 2.32 2.38 2.36 2.66 2.78 2.79 2.75 2.74 2.72 2.84 2.86 2.78 2.89 3.07 3.34 3.42 3.06 2.54 2.42 2.35 2.33 2.21 2.20 2.06 1.93 1.86 1.66 1.53 1.38 1.35 1.34 1.36 1.40 1.41 1.44 1.44 1.49
1.92 1.96 2.10 2.13 2.03 2.03 2.24 2.28 2.34 2.62 2.77 2.66 2.63 2.62 2.41 2.47 2.54 2.44 2.59 2.67 2.81 3.06 3.01 2.70 2.64 2.59 2.53 2.39 2.37 2.31 2.10 1.85 1.59 1.57 1.41 1.35 1.37 1.38 1.38 1.39 1.42 1.42 1.45
1.80 1.86 1.89 1.93 1.99 2.10 2.20 2.21 2.23 2.24 2.26 2.34 2.56 2.67 2.45 2.42 2.32 2.32 2.35 2.34 2.43 2.56 2.78 2.71 2.60 2.63 2.56 2.55 2.45 2.23 2.07 1.96 1.62 1.58 1.56 1.46 1.40 1.33 1.31 1.31 1.33 1.42 1.55
1.65 1.74 1.81 1.92 1.99 2.04 2.09 2.17 2.24 2.16 2.14 2.18 2.32 2.39 2.35 2.32 2.26 2.35 2.26 2.24 2.32 2.47 2.59 2.63 2.56 2.65 2.64 2.59 2.59 2.37 2.36 2.21 2.02 1.78 1.74 1.62 1.61 1.56 1.46 1.35 1.30 1.33 1.47
1.73 1.80 1.87 1.90 1.90 1.89 1.82 1.86 1.95 1.96 2.08 2.04 1.96 1.98 2.00 2.03 2.02 2.05 1.91 2.07 2.29 2.43 2.47 2.48 2.47 2.64 2.79 2.81 2.63 2.55 2.59 2.55 2.35 2.04 1.92 1.75 1.68 1.59 1.58 1.52 1.42 1.34 1.34
1.82 1.85 1.81 1.86 1.87 1.63 1.80 1.82 1.81 1.92 1.99 1.99 1.91 1.81 1.72 1.72 1.65 1.65 1.61 1.70 1.96 2.16 2.28 2.39 2.37 2.48 2.72 2.91 3.00 2.95 2.81 2.69 2.63 2.45 2.32 2.22 2.01 1.88 1.77 1.64 1.59 1.48 1.37
1.94 1.89 1.82 1.83 1.86 1.92 1.97 1.79 1.65 1.62 1.73 1.79 1.77 1.75 1.55 1.46 1.62 1.60 1.62 1.59 1.61 1.74 1.90 2.11 2.20 2.18 2.37 2.64 2.88 2.80 2.92 2.94 2.87 2.85 2.82 2.73 2.39 2.12 1.84 1.67 1.56 1.33 1.23
2.12 2.09 2.03 1.95 1.94 1.92 1.89 1.69 1.68 1.62 1.66 1.68 1.71 1.75 1.73 1.63 1.66 1.78 1.75 1.68 1.57 1.52 1.59 1.69 1.81 1.94 2.16 2.47 2.74 2.70 2.75 2.83 2.86 2.83 2.84 2.80 2.47 2.26 1.98 1.80 1.72 1.45 1.23
2.25 2.16 2.10 2.11 2.05 2.06 2.13 1.94 1.95 1.81 1.82 1.85 1.88 1.88 1.83 1.71 1.82 1.79 1.72 1.72 1.66 1.63 1.68 1.75 1.73 1.85 2.09 2.21 2.37 2.46 2.42 2.48 2.41 2.33 2.45 2.61 2.54 2.43 2.26 1.99 1.74 1.54 1.27
2.28 2.28 2.27 2.23 2.23 2.27 2.50 2.31 2.14 1.99 2.01 2.01 2.10 2.08 2.09 1.92 1.90 1.84 1.70 1.73 1.75 1.75 1.82 1.78 1.75 1.71 1.74 1.94 2.16 2.21 2.36 2.53 2.40 2.18 1.96 2.10 2.27 2.44 2.54 2.29 1.99 1.78 1.64